Weather History for KPGA - August, 2014

Change the Weather History Date:

Sunday, August 3, 2014

  Actual Average Record
Temperature  
Mean Temperature 76 °F -  
Max Temperature 82 °F 96 °F 103 °F (1979)
Min Temperature 69 °F 70 °F 58 °F (1968)
Cooling Degree Days 10    
Growing Degree Days 26 (Base 50)    
Moisture  
Dew Point 59 °F    
Average Humidity 61    
Maximum Humidity 76    
Minimum Humidity 42    
Precipitation  
Precipitation 0.04 in - - ()
Sea Level Pressure  
Sea Level Pressure 29.99 in    
Wind  
Wind Speed 6 mph (SE)    
Max Wind Speed 13 mph    
Max Gust Speed 20 mph    
Visibility 10 miles    
Events Rain    
Averages and records for this station are not official NWS values.
T = Trace of Precipitation, MM = Missing Value Source: NWS Daily Summary

Daily Weather History Graph

Daily Weather History Graph

Search for Another Location

Airport or City:

Trip Planner

Search our weather history database for the weather conditions in past years. The results will help you decide how hot, cold, wet, or windy it might be!

Date:

Astronomy

Aug. 03, 2014 Rise Set
Actual Time 5:32 AM MST 7:30 PM MST
Civil Twilight 5:04 AM MST 7:58 PM MST
Nautical Twilight 4:29 AM MST 8:33 PM MST
Astronomical Twilight 3:52 AM MST 9:10 PM MST
Moon 12:45 PM MST (8/3) 11:41 PM MST (8/3)
Length of Visible Light 14h 54m
Length of Day
13h 57m
Waxing Crescent, 48% of the Moon is Illuminated
Aug 3
Waxing Crescent
Aug 3
First Quarter
Aug 10
Full
Aug 17
Last Quarter
Aug 25
New

Hourly Weather History & Observations

Time (MST) Temp. Dew Point Humidity Pressure Visibility Wind Dir Wind Speed Gust Speed Precip Events Conditions
12:53 AM 78.8 °F 53.6 °F 42% 30.11 in 10.0 mi South 12.7 mph 19.6 mph N/A   Partly Cloudy
1:53 AM 78.1 °F 54.0 °F 43% 29.89 in 10.0 mi South 6.9 mph - 0.00 in Rain Light Rain
2:53 AM 78.1 °F 55.0 °F 45% 29.91 in 10.0 mi SSE 11.5 mph - 0.00 in   Overcast
3:53 AM 73.9 °F 55.9 °F 53% 29.95 in 10.0 mi ESE 8.1 mph - 0.00 in   Overcast
4:53 AM 71.1 °F 55.9 °F 59% 29.96 in 10.0 mi East 3.5 mph - 0.00 in   Overcast
5:53 AM 70.0 °F 57.9 °F 65% 29.98 in 10.0 mi NE 8.1 mph - N/A   Mostly Cloudy
6:53 AM 71.1 °F 59.0 °F 66% 29.99 in 10.0 mi NE 5.8 mph - N/A   Overcast
7:53 AM 72.0 °F 57.0 °F 59% 29.98 in 10.0 mi North 6.9 mph - 0.00 in Rain Light Rain
8:53 AM 73.9 °F 57.9 °F 57% 29.99 in 10.0 mi Variable 3.5 mph - 0.00 in   Mostly Cloudy
9:53 AM 75.9 °F 57.9 °F 54% 29.99 in 10.0 mi Calm Calm - N/A   Scattered Clouds
10:53 AM 75.0 °F 57.0 °F 53% 29.98 in 10.0 mi WSW 4.6 mph - N/A   Scattered Clouds
11:53 AM 73.9 °F 57.0 °F 55% 29.99 in 10.0 mi WSW 6.9 mph - N/A   Mostly Cloudy
12:53 PM 71.1 °F 60.1 °F 68% 30.00 in 10.0 mi WSW 8.1 mph - 0.01 in Rain Light Rain
1:53 PM 72.0 °F 59.0 °F 64% 30.00 in 10.0 mi NNW 4.6 mph - 0.00 in   Overcast
2:53 PM 71.1 °F 61.0 °F 70% 29.96 in 10.0 mi North 5.8 mph - N/A   Overcast
3:53 PM 70.0 °F 62.1 °F 76% 29.98 in 3.0 mi Calm Calm - 0.01 in Rain Rain
4:53 PM 71.1 °F 62.1 °F 73% 29.95 in 10.0 mi Calm Calm - 0.03 in   Overcast
5:53 PM 73.0 °F 62.1 °F 68% 29.93 in 10.0 mi NE 4.6 mph - N/A   Partly Cloudy
6:53 PM 71.6 °F 60.8 °F 69% 30.11 in 10.0 mi East 3.5 mph - N/A   Scattered Clouds
7:53 PM 70.0 °F 62.1 °F 76% 29.95 in 10.0 mi SSE 5.8 mph - N/A   Clear
8:53 PM 72.0 °F 61.0 °F 68% 29.95 in 10.0 mi Calm Calm - N/A   Clear
9:53 PM 71.6 °F 60.8 °F 69% 30.14 in 10.0 mi WSW 3.5 mph - N/A   Clear
10:53 PM 69.8 °F 60.8 °F 73% 30.12 in 10.0 mi Calm Calm - N/A   Clear
11:53 PM 70.0 °F 61.0 °F 73% 29.98 in 10.0 mi Calm Calm - N/A   Mostly Cloudy